{"data":{"norad_id":48602,"intl_designator":"2021-041BB","name":"STARLINK-2713","alt_names":[],"object_type":"PAYLOAD","status":"ACTIVE","operator":null,"country":"US","launch_date":"2021-05-15","launch_site_code":"AFETR","launch_vehicle":null,"mission":null,"orbit_class":"UNKNOWN","rcs_meters":null,"size_class":null,"mass_kg":null,"dimensions":null,"purposes":["comms"],"wikipedia_slug":null,"has_3d_model":false,"image_url":null,"decayed_at":null,"tle_current":{"epoch":"2026-05-25T05:07:53.351616Z","epoch_age_seconds":56630,"freshness":"FRESH","line1":"1 48602U 21041BB  26145.21381194  .00001048  00000+0  45531-4 0  9999","line2":"2 48602  53.1576 117.9156 0001294  89.5415 270.5735 15.31704842278435","mean_motion":15.31704842,"eccentricity":0.0001294,"inclination_deg":53.1576,"raan_deg":117.9156,"arg_perigee_deg":89.5415,"mean_anomaly_deg":270.5735,"bstar":4.5531e-5,"rev_number":27843,"period_min":94.012890768155,"perigee_km":469.83931869817,"apogee_km":471.61180432909,"semimajor_km":6848.8625615136,"source":"CELESTRAK","updated_at":"2026-05-25T13:38:16.752216Z"}}}